"2010-11-26 00:00:00",368941,6.659,321,5.867,0.948,3.598,99.75142,-1.333,-0.281,10.72,0,109.5,13.57,-0.59,283.0
"2010-11-26 00:00:30",368942,6.443,316.8,4.516,1.021,4.397,99.75367,-1.327,-0.197,10.82,0,109.4,13.57,-0.58,278.8
"2010-11-26 00:01:00",368943,6.04,309.3,5.234,1.166,3.11,99.74348,-1.353,-0.343,10.81,0,109.4,13.57,-0.61,271.3
"2010-11-26 00:01:30",368944,5.788,311.9,6.73,1.089,3.325,99.72083,-1.411,-0.321,10.95,0,109.5,13.58,-0.66,273.9
"2010-11-26 00:02:00",368945,6.104,308.9,7.151,1.195,3.014,99.7197,-1.414,-0.305,10.97,0,109.4,13.58,-0.67,270.9
"2010-11-26 00:02:30",368946,5.777,306.8,6.318,1.228,2.799,99.71487,-1.426,-0.342,10.99,0,109.4,13.58,-0.68,268.8
"2010-11-26 00:03:00",368947,5.664,308.4,6.191,1.018,3.083,99.69675,-1.473,-0.365,11.01,0,109.4,13.58,-0.73,270.4
"2010-11-26 00:03:30",368948,5.218,302.3,6.653,1.22,2.267,99.69334,-1.481,-0.426,10.99,0,109.4,13.58,-0.73,264.3
"2010-11-26 00:04:00",368949,5.707,299,6.229,1.101,3.171,99.69419,-1.479,-0.417,11.06,0,109.4,13.58,-0.73,261.0
"2010-11-26 00:04:30",368950,6.095,305.2,7.281,1.159,3.141,99.67748,-1.522,-0.459,11.08,0,109.4,13.58,-0.78,267.2
"2010-11-26 00:05:00",368951,6.655,310.1,5.459,0.73,3.855,99.66956,-1.542,-0.34,11.12,0,109.4,13.59,-0.80,272.1
"2010-11-26 00:05:30",368952,6.267,302.6,5.172,1.126,2.918,99.66134,-1.563,-0.395,11.13,0,109.4,13.59,-0.82,264.6
"2010-11-26 00:06:00",368953,6.232,297.1,7.904,1.084,3.02,99.66049,-1.565,-0.421,11.13,0,109.4,13.59,-0.82,259.1
"2010-11-26 00:06:30",368954,5.22,291.9,7.636,1.115,2.401,99.6602,-1.566,-0.493,11.11,0,109.4,13.59,-0.82,253.9
"2010-11-26 00:07:00",368955,5.949,293.4,6.497,1.034,3.388,99.65737,-1.573,-0.434,11.19,0,109.5,13.59,-0.83,255.4
"2010-11-26 00:07:30",368956,4.89,292.5,6.399,1.162,2.546,99.63473,-1.631,-0.475,11.13,0,109.4,13.59,-0.88,254.5
"2010-11-26 00:08:00",368957,5.244,286.3,9.49,1.168,2.574,99.62622,-1.652,-0.493,11.13,0,109.4,13.59,-0.91,248.3
"2010-11-26 00:08:30",368958,5.167,287.2,5.692,1.209,2.675,99.62622,-1.652,-0.515,11.06,0,109.4,13.59,-0.91,249.2
"2010-11-26 00:09:00",368959,4.237,284.1,6.994,1.163,0.787,99.6265,-1.652,-0.694,10.91,0,109.4,13.59,-0.91,246.1
"2010-11-26 00:09:30",368960,5.198,289,5.883,1.195,2.561,99.62622,-1.652,-0.521,11.09,0,109.4,13.59,-0.91,251.0
"2010-11-26 00:10:00",368961,5.248,288,5.906,1.178,2.876,99.6265,-1.652,-0.564,11.02,0,109.4,13.59,-0.91,250.0
"2010-11-26 00:10:30",368962,4.97,286.7,8.86,1.123,2.957,99.62904,-1.645,-0.452,11.06,0,109.4,13.59,-0.90,248.7
"2010-11-26 00:11:00",368963,5.338,298.2,7.784,1.059,2.948,99.63725,-1.624,-0.515,10.97,0,109.4,13.59,-0.88,260.2
"2010-11-26 00:11:30",368964,4.536,292.7,8.03,1.191,2.138,99.66018,-1.566,-0.575,10.88,0,109.4,13.59,-0.82,254.7
"2010-11-26 00:12:00",368965,4.07,287.6,8.05,1.24,1.738,99.66838,-1.545,-0.501,10.95,0,109.4,13.59,-0.80,249.6
"2010-11-26 00:12:30",368966,5.34,296,5.55,1.022,2.96,99.67404,-1.53,-0.486,10.94,0,109.4,13.59,-0.78,258.0
"2010-11-26 00:13:00",368967,5.501,294.8,7.047,1.176,2.654,99.67714,-1.523,-0.543,10.84,0,109.4,13.59,-0.78,256.8
"2010-11-26 00:13:30",368968,5.488,290.6,5.006,1.122,3.551,99.68223,-1.51,-0.402,10.91,0,109.4,13.59,-0.76,252.6
"2010-11-26 00:14:00",368969,5.484,288.5,6.546,1.097,3.27,99.68392,-1.505,-0.463,10.81,0,109.4,13.59,-0.76,250.5
"2010-11-26 00:14:30",368970,5.139,286,8.92,1.226,2.054,99.68505,-1.502,-0.457,10.78,0,109.4,13.59,-0.76,248.0
"2010-11-26 00:15:00",368971,4.891,285.7,6.593,1.192,1.852,99.68702,-1.497,-0.547,10.71,0,109.4,13.59,-0.75,247.7
"2010-11-26 00:15:30",368972,5.255,291.4,6.95,1.178,3.326,99.68645,-1.499,-0.475,10.77,0,109.4,13.59,-0.75,253.4
"2010-11-26 00:16:00",368973,5.583,294.3,6.171,1.18,2.655,99.68787,-1.495,-0.435,10.79,0,109.4,13.59,-0.75,256.3
"2010-11-26 00:16:30",368974,5.602,295.8,6.303,0.886,3.784,99.6873,-1.497,-0.362,10.87,0,109.4,13.6,-0.75,257.8
"2010-11-26 00:17:00",368975,5.113,298.9,5.228,1.223,2.68,99.68844,-1.494,-0.422,10.75,0,109.4,13.6,-0.75,260.9
"2010-11-26 00:17:30",368976,4.982,297.8,6.429,1.19,1.423,99.69097,-1.487,-0.553,10.62,0,109.4,13.6,-0.74,259.8
"2010-11-26 00:18:00",368977,5.706,298.8,8.25,1.162,2.484,99.69183,-1.485,-0.463,10.73,0,109.4,13.6,-0.74,260.8
"2010-11-26 00:18:30",368978,6.46,304.8,6.203,1.105,3.651,99.6989,-1.467,-0.423,10.73,0,109.4,13.6,-0.72,266.8
"2010-11-26 00:19:00",368979,6.744,304.4,3.975,0.718,4.488,99.70059,-1.463,-0.34,10.81,0,109.5,13.6,-0.72,266.4
"2010-11-26 00:19:30",368980,6.394,308.4,5.273,0.846,4.131,99.70315,-1.456,-0.325,10.79,0,109.4,13.6,-0.71,270.4
"2010-11-26 00:20:00",368981,5.906,304.7,6.985,1.128,2.632,99.70371,-1.455,-0.427,10.66,0,109.4,13.6,-0.71,266.7
"2010-11-26 00:20:30",368982,6.056,306.7,7.193,1.058,2.35,99.70683,-1.447,-0.38,10.66,0,109.4,13.6,-0.70,268.7
"2010-11-26 00:21:00",368983,5.786,303.6,7.397,1.24,2.208,99.7142,-1.428,-0.388,10.67,0,109.4,13.6,-0.68,265.6
"2010-11-26 00:21:30",368984,6.408,308.6,5.174,0.999,4.057,99.72099,-1.411,-0.363,10.71,0,109.4,13.6,-0.66,270.6
"2010-11-26 00:22:00",368985,6.515,313.4,4.211,0.706,4.61,99.71958,-1.414,-0.294,10.73,0,109.4,13.6,-0.67,275.4
"2010-11-26 00:22:30",368986,6.255,313.7,3.733,0.579,4.213,99.71731,-1.42,-0.301,10.72,0,109.4,13.6,-0.67,275.7
"2010-11-26 00:23:00",368987,4.576,300.3,6.855,1.143,0.841,99.71844,-1.417,-0.516,10.48,0,109.4,13.6,-0.67,262.3
"2010-11-26 00:23:30",368988,5.276,303.3,5.982,1.207,2.3,99.7057,-1.45,-0.361,10.55,0,109.4,13.6,-0.70,265.3
"2010-11-26 00:24:00",368989,5.172,300.9,6.291,1.173,1.536,99.71107,-1.436,-0.474,10.41,0,109.4,13.61,-0.69,262.9
"2010-11-26 00:24:30",368990,5.961,299.8,6.296,1.028,3.942,99.71731,-1.42,-0.311,10.56,0,109.4,13.61,-0.67,261.8
"2010-11-26 00:25:00",368991,6.515,310,4.855,1.008,4.077,99.7074,-1.445,-0.322,10.56,0,109.4,13.61,-0.70,272.0
"2010-11-26 00:25:30",368992,7.506,313,3.164,0.818,4.338,99.70145,-1.461,-0.281,10.66,0,109.4,13.61,-0.71,275.0
"2010-11-26 00:26:00",368993,7.621,311.6,4.854,0.848,4.175,99.69521,-1.477,-0.281,10.61,0,109.4,13.61,-0.73,273.6
"2010-11-26 00:26:30",368994,7.192,313.3,4.39,0.697,4.16,99.69408,-1.479,-0.303,10.57,0,109.4,13.61,-0.73,275.3
"2010-11-26 00:27:00",368995,6.211,319.6,5.26,0.43,3.909,99.69436,-1.479,-0.313,10.63,0,109.4,13.61,-0.73,281.6
"2010-11-26 00:27:30",368996,6.244,315,7.018,1.091,2.398,99.6955,-1.476,-0.357,10.67,0,109.4,13.61,-0.73,277.0
"2010-11-26 00:28:00",368997,4.833,303.9,6.574,1.144,0.544,99.69662,-1.473,-0.488,10.56,0,109.4,13.61,-0.73,265.9
"2010-11-26 00:28:30",368998,5.002,305.9,5.881,1.213,1.561,99.69578,-1.475,-0.423,10.62,0,109.4,13.6,-0.73,267.9
"2010-11-26 00:29:00",368999,5.722,315.3,5.347,1.087,3.49,99.69974,-1.465,-0.346,10.68,0,109.4,13.6,-0.72,277.3
"2010-11-26 00:29:30",369000,5.214,310.1,6.333,0.969,4.26,99.69917,-1.466,-0.309,10.7,0,109.4,13.6,-0.72,272.1
"2010-11-26 00:30:00",369001,5.517,309.2,6.872,0.968,4.352,99.70115,-1.461,-0.301,10.7,0,109.4,13.6,-0.71,271.2
"2010-11-26 00:30:30",369002,5.629,315.1,6.195,0.758,3.95,99.70255,-1.458,-0.313,10.69,0,109.4,13.6,-0.71,277.1
"2010-11-26 00:31:00",369003,4.84,303.8,6.773,1.164,2.245,99.70538,-1.451,-0.349,10.69,0,109.4,13.6,-0.70,265.8
"2010-11-26 00:31:30",369004,4.711,305.7,6.105,1.241,1.098,99.70454,-1.453,-0.532,10.5,0,109.4,13.6,-0.71,267.7
"2010-11-26 00:32:00",369005,4.714,309.8,8.85,1.385,1.883,99.71273,-1.432,-0.337,10.69,0,109.4,13.6,-0.68,271.8
"2010-11-26 00:32:30",369006,5.283,311.3,5.163,0.971,4.225,99.71244,-1.433,-0.372,10.61,0,109.4,13.61,-0.69,273.3
"2010-11-26 00:33:00",369007,4.923,309.6,5.542,0.951,4.259,99.71612,-1.423,-0.289,10.65,0,109.4,13.62,-0.68,271.6
"2010-11-26 00:33:30",369008,5.191,306.4,5.419,0.947,4.057,99.71584,-1.424,-0.306,10.6,0,109.4,13.62,-0.68,268.4
"2010-11-26 00:34:00",369009,5.115,314.1,6.043,0.934,3.861,99.71611,-1.423,-0.276,10.61,0,109.4,13.62,-0.68,276.1
"2010-11-26 00:34:30",369010,3.453,304,8.77,1.055,0.385,99.71611,-1.423,-0.52,10.35,0,109.4,13.62,-0.68,266.0
"2010-11-26 00:35:00",369011,3.868,309.6,7.093,1.304,2.052,99.71555,-1.425,-0.394,10.4,0,109.4,13.62,-0.68,271.6
"2010-11-26 00:35:30",369012,3.217,305.2,7.539,1.088,0.98,99.7147,-1.427,-0.447,10.37,0,109.4,13.62,-0.68,267.2
"2010-11-26 00:36:00",369013,4.736,314.2,6.163,0.895,3.909,99.71526,-1.425,-0.308,10.52,0,109.4,13.62,-0.68,276.2
"2010-11-26 00:36:30",369014,4.93,309.8,4.344,0.865,4.443,99.71583,-1.424,-0.294,10.59,0,109.4,13.62,-0.68,271.8
"2010-11-26 00:37:00",369015,5.027,311.4,3.778,0.777,4.074,99.71752,-1.42,-0.274,10.56,0,109.4,13.62,-0.67,273.4
"2010-11-26 00:37:30",369016,3.968,302.8,6.574,1.166,1.723,99.71838,-1.417,-0.395,10.41,0,109.4,13.62,-0.67,264.8
"2010-11-26 00:38:00",369017,3.195,294.9,6.67,1.084,1.201,99.71922,-1.415,-0.429,10.37,0,109.4,13.62,-0.67,256.9
"2010-11-26 00:38:30",369018,3.115,296.7,4.978,0.879,0.512,99.72544,-1.399,-0.487,10.3,0,109.4,13.62,-0.65,258.7
"2010-11-26 00:39:00",369019,5.049,310.3,2.742,0.656,4.303,99.72743,-1.394,-0.281,10.52,0,109.4,13.63,-0.65,272.3
"2010-11-26 00:39:30",369020,4.372,309.4,5.696,1.125,3.493,99.73167,-1.384,-0.299,10.48,0,109.4,13.63,-0.64,271.4
"2010-11-26 00:40:00",369021,4.836,311.9,3.825,0.666,4.348,99.73507,-1.375,-0.266,10.58,0,109.4,13.63,-0.63,273.9
"2010-11-26 00:40:30",369022,4.177,304.2,6.994,1.255,2.177,99.73791,-1.368,-0.41,10.4,0,109.4,13.63,-0.62,266.2
"2010-11-26 00:41:00",369023,3.849,301.9,4.616,1.183,1.333,99.74046,-1.361,-0.41,10.38,0,109.4,13.63,-0.61,263.9
"2010-11-26 00:41:30",369024,3.953,298.5,5.171,1.336,1.296,99.73422,-1.377,-0.401,10.33,0,109.4,13.63,-0.63,260.5
"2010-11-26 00:42:00",369025,4.77,303.9,6.727,1.041,3.513,99.72884,-1.391,-0.25,10.44,0,109.4,13.63,-0.64,265.9
"2010-11-26 00:42:30",369026,4.625,303.7,6.486,1.096,3.595,99.73338,-1.379,-0.313,10.47,0,109.4,13.63,-0.63,265.7
"2010-11-26 00:43:00",369027,4.608,310.5,5.917,1.015,3.803,99.75406,-1.327,-0.253,10.53,0,109.4,13.63,-0.58,272.5
"2010-11-26 00:43:30",369028,4.482,303.1,7.76,1.169,2.28,99.75887,-1.314,-0.274,10.47,0,109.4,13.63,-0.57,265.1
"2010-11-26 00:44:00",369029,4.018,299.4,6.264,1.23,1.662,99.75859,-1.315,-0.381,10.34,0,109.4,13.63,-0.57,261.4
"2010-11-26 00:44:30",369030,4.113,293.6,5.744,1.137,1.347,99.75972,-1.312,-0.371,10.31,0,109.4,13.63,-0.56,255.6
"2010-11-26 00:45:00",369031,4.822,294.5,5.591,1.256,2.461,99.7566,-1.32,-0.294,10.39,0,109.4,13.63,-0.57,256.5
"2010-11-26 00:45:30",369032,5.746,298.4,4.995,0.849,4.451,99.7413,-1.359,-0.24,10.4,0,109.4,13.63,-0.61,260.4
"2010-11-26 00:46:00",369033,5.46,294.4,5.274,0.876,3.961,99.73222,-1.382,-0.243,10.36,0,109.4,13.63,-0.64,256.4
"2010-11-26 00:46:30",369034,5.419,301.1,5.195,0.7,4.104,99.73052,-1.386,-0.243,10.41,0,109.4,13.62,-0.64,263.1
"2010-11-26 00:47:00",369035,4.347,294.5,5.909,1.191,1.702,99.73222,-1.382,-0.399,10.28,0,109.4,13.62,-0.64,256.5
"2010-11-26 00:47:30",369036,3.885,297.6,6.533,1.157,1.306,99.73903,-1.365,-0.38,10.31,0,109.4,13.63,-0.62,259.6
"2010-11-26 00:48:00",369037,4.218,295,5.364,1.267,1.836,99.75688,-1.319,-0.333,10.34,0,109.4,13.63,-0.57,257.0
"2010-11-26 00:48:30",369038,5.387,296.6,5.876,1.056,3.771,99.75717,-1.319,-0.315,10.3,0,109.4,13.63,-0.57,258.6
"2010-11-26 00:49:00",369039,5.719,296.3,5.003,0.847,4.121,99.74951,-1.338,-0.221,10.35,0,109.4,13.63,-0.59,258.3
"2010-11-26 00:49:30",369040,5.684,298,4.614,0.661,4.335,99.74158,-1.358,-0.204,10.38,0,109.4,13.63,-0.61,260.0
"2010-11-26 00:50:00",369041,5.171,295,7.669,1.129,3.027,99.73875,-1.366,-0.233,10.34,0,109.4,13.63,-0.62,257.0
"2010-11-26 00:50:30",369042,4.887,296.3,6.872,1.237,1.868,99.72911,-1.39,-0.367,10.24,0,109.4,13.63,-0.64,258.3
"2010-11-26 00:51:00",369043,3.824,287.1,4.908,0.683,0.796,99.72826,-1.392,-0.303,10.34,0,109.4,13.64,-0.65,249.1
"2010-11-26 00:51:30",369044,5.463,298.7,5.491,1.106,3.209,99.73081,-1.386,-0.352,10.27,0,109.4,13.63,-0.64,260.7
"2010-11-26 00:52:00",369045,5.474,302.9,5.138,0.997,3.631,99.7345,-1.376,-0.237,10.39,0,109.4,13.64,-0.63,264.9
"2010-11-26 00:52:30",369046,5.781,302.3,4.558,0.762,4.262,99.73647,-1.371,-0.2,10.41,0,109.4,13.64,-0.62,264.3
"2010-11-26 00:53:00",369047,5.314,302.1,4.648,1.035,3.777,99.74101,-1.36,-0.263,10.35,0,109.4,13.64,-0.61,264.1
"2010-11-26 00:53:30",369048,4.495,299.6,5.62,1.095,1.262,99.74186,-1.358,-0.314,10.3,0,109.4,13.64,-0.61,261.6
"2010-11-26 00:54:00",369049,4.548,302.2,6.011,1.205,1.767,99.73364,-1.379,-0.325,10.28,0,109.4,13.64,-0.63,264.2
"2010-11-26 00:54:30",369050,4.972,303.2,7.059,1.063,3.384,99.73392,-1.378,-0.277,10.33,0,109.4,13.64,-0.63,265.2
"2010-11-26 00:55:00",369051,5.729,309,6.726,1.051,3.475,99.73647,-1.371,-0.231,10.39,0,109.4,13.64,-0.62,271.0
"2010-11-26 00:55:30",369052,5.621,310.2,5.848,1.095,3.812,99.72997,-1.388,-0.217,10.41,0,109.4,13.64,-0.64,272.2
"2010-11-26 00:56:00",369053,5.877,306,5.286,1.095,3.641,99.72798,-1.393,-0.312,10.33,0,109.4,13.64,-0.65,268.0
"2010-11-26 00:56:30",369054,5.49,300.9,5.981,1.17,2.155,99.72798,-1.393,-0.319,10.35,0,109.4,13.64,-0.65,262.9
"2010-11-26 00:57:00",369055,6.018,304.9,5.627,1.093,3.623,99.72798,-1.393,-0.238,10.45,0,109.4,13.64,-0.65,266.9
"2010-11-26 00:57:30",369056,5.899,303.4,5.412,1.17,2.774,99.72798,-1.393,-0.361,10.37,0,109.4,13.64,-0.65,265.4
"2010-11-26 00:58:00",369057,6.048,303.9,6.444,1.069,3.48,99.72429,-1.402,-0.286,10.44,0,109.4,13.64,-0.66,265.9
"2010-11-26 00:58:30",369058,6.237,303.3,6.455,1.071,2.974,99.70644,-1.448,-0.294,10.47,0,109.4,13.64,-0.70,265.3
"2010-11-26 00:59:00",369059,6.432,303.3,7.189,1.051,3.315,99.6954,-1.476,-0.376,10.41,0,109.4,13.64,-0.73,265.3
"2010-11-26 00:59:30",369060,7.041,305.6,4.191,0.808,3.903,99.69398,-1.48,-0.273,10.49,0,109.4,13.64,-0.73,267.6
"2010-11-26 01:00:00",369061,7.031,304,4.102,0.721,4.453,99.69398,-1.48,-0.275,10.55,0,109.4,13.64,-0.73,266.0
"2010-11-26 01:00:30",369062,6.844,301.3,4.956,1.1,3.252,99.69398,-1.48,-0.279,10.51,0,109.4,13.63,-0.73,263.3
"2010-11-26 01:01:00",369063,7.255,303.4,5.554,1.022,3.068,99.69398,-1.48,-0.37,10.43,0,109.4,13.63,-0.73,265.4
"2010-11-26 01:01:30",369064,6.72,302.3,6.548,1.161,2.397,99.69398,-1.48,-0.395,10.43,0,109.4,13.63,-0.73,264.3
"2010-11-26 01:02:00",369065,6.801,302.5,7.584,1.221,3.181,99.68832,-1.494,-0.356,10.47,0,109.4,13.63,-0.75,264.5
"2010-11-26 01:02:30",369066,7.891,307.4,4.958,0.678,4.289,99.67981,-1.516,-0.297,10.53,0,109.4,13.63,-0.77,269.4
"2010-11-26 01:03:00",369067,7.474,301.2,6.039,0.673,4.403,99.67272,-1.534,-0.325,10.59,0,109.4,13.63,-0.79,263.2
"2010-11-26 01:03:30",369068,7.606,299.6,4.743,0.72,4.081,99.66847,-1.545,-0.328,10.59,0,109.4,13.63,-0.80,261.6
"2010-11-26 01:04:00",369069,7.424,307.7,4.569,0.712,3.548,99.67102,-1.538,-0.351,10.65,0,109.4,13.63,-0.79,269.7
"2010-11-26 01:04:30",369070,8.43,308,3.913,0.701,3.577,99.66281,-1.559,-0.352,10.87,0,109.4,13.63,-0.81,270.0
"2010-11-26 01:05:00",369071,8.66,306.1,4.324,0.578,3.505,99.6577,-1.572,-0.368,11.04,0,109.3,13.63,-0.83,268.1
"2010-11-26 01:05:30",369072,8.36,304.7,4.294,0.708,3.515,99.63901,-1.62,-0.387,11.11,0,109.4,13.63,-0.87,266.7
"2010-11-26 01:06:00",369073,8.19,308.7,3.91,0.711,3.652,99.63248,-1.636,-0.427,11.13,0,109.4,13.63,-0.89,270.7
"2010-11-26 01:06:30",369074,8.39,310.7,3.723,0.64,3.672,99.63078,-1.641,-0.397,11.17,0,109.4,13.63,-0.89,272.7
"2010-11-26 01:07:00",369075,8.55,310.6,4.878,0.597,3.969,99.62907,-1.645,-0.429,11.25,0,109.4,13.63,-0.90,272.6
"2010-11-26 01:07:30",369076,8.43,311.6,4.495,0.77,3.842,99.63246,-1.636,-0.405,11.28,0,109.4,13.63,-0.89,273.6
"2010-11-26 01:08:00",369077,8.46,310.3,4.997,0.592,3.842,99.63219,-1.637,-0.433,11.32,0,109.4,13.63,-0.89,272.3
"2010-11-26 01:08:30",369078,8.25,304.7,4.081,0.665,3.887,99.63474,-1.631,-0.436,11.26,0,109.4,13.63,-0.88,266.7
"2010-11-26 01:09:00",369079,7.98,305.6,2.457,0.736,3.472,99.64606,-1.602,-0.422,11.17,0,109.4,13.63,-0.86,267.6
"2010-11-26 01:09:30",369080,7.839,311.4,3.245,1.033,3.151,99.65484,-1.579,-0.4,11.17,0,109.4,13.63,-0.83,273.4
"2010-11-26 01:10:00",369081,8.82,314.5,3.842,0.926,3.499,99.65597,-1.577,-0.433,11.25,0,109.4,13.63,-0.83,276.5
"2010-11-26 01:10:30",369082,8.21,309.5,4.842,0.824,3.443,99.66192,-1.561,-0.4,11.24,0,109.4,13.63,-0.81,271.5
"2010-11-26 01:11:00",369083,9.05,311.4,5.166,0.801,3.624,99.65456,-1.58,-0.417,11.28,0,109.4,13.63,-0.83,273.4
"2010-11-26 01:11:30",369084,8.73,309.9,3.971,0.723,3.858,99.65285,-1.584,-0.415,11.35,0,109.4,13.63,-0.84,271.9
"2010-11-26 01:12:00",369085,8.03,310.7,3.781,0.76,3.805,99.66333,-1.558,-0.411,11.28,0,109.4,13.63,-0.81,272.7
"2010-11-26 01:12:30",369086,9.63,309.8,3.678,0.778,3.914,99.6707,-1.539,-0.414,11.32,0,109.4,13.63,-0.79,271.8
"2010-11-26 01:13:00",369087,9.43,312.9,4.336,0.835,3.736,99.65738,-1.573,-0.406,11.37,0,109.4,13.63,-0.83,274.9
"2010-11-26 01:13:30",369088,9.17,312.8,4.479,0.857,4.208,99.65483,-1.579,-0.408,11.39,0,109.4,13.63,-0.83,274.8
"2010-11-26 01:14:00",369089,10.11,307.3,4.566,0.616,4.071,99.65427,-1.581,-0.412,11.38,0,109.4,13.63,-0.83,269.3
"2010-11-26 01:14:30",369090,10.21,308.6,3.853,0.792,4.154,99.64406,-1.607,-0.439,11.35,0,109.4,13.63,-0.86,270.6
"2010-11-26 01:15:00",369091,10.13,305.2,3.872,0.385,4.092,99.63613,-1.627,-0.438,11.28,0,109.3,13.63,-0.88,267.2
"2010-11-26 01:15:30",369092,9.73,307.9,4.158,0.597,4.07,99.61402,-1.683,-0.464,11.23,0,109.4,13.63,-0.94,269.9
"2010-11-26 01:16:00",369093,9.52,309,3.705,0.607,4.191,99.60298,-1.712,-0.504,11.32,0,109.4,13.63,-0.97,271.0
"2010-11-26 01:16:30",369094,9.57,307.3,4.55,0.539,4.216,99.58089,-1.768,-0.533,11.34,0,109.4,13.63,-1.02,269.3
"2010-11-26 01:17:00",369095,9.86,310.8,3.828,0.51,4.111,99.57179,-1.791,-0.561,11.38,0,109.4,13.63,-1.05,272.8
"2010-11-26 01:17:30",369096,9.9,311,4.015,0.51,4.287,99.56387,-1.811,-0.577,11.55,0,109.4,13.63,-1.07,273.0
"2010-11-26 01:18:00",369097,10.33,310.1,3.241,0.717,4.079,99.55252,-1.84,-0.605,11.57,0,109.4,13.63,-1.09,272.1
"2010-11-26 01:18:30",369098,10.79,310.6,3.115,0.666,4.329,99.53751,-1.878,-0.631,11.58,0,109.4,13.63,-1.13,272.6
"2010-11-26 01:19:00",369099,10.73,310.7,2.834,0.617,4.24,99.5341,-1.887,-0.653,11.55,0,109.4,13.63,-1.14,272.7
"2010-11-26 01:19:30",369100,10.7,311.1,4.046,0.66,4.26,99.51203,-1.943,-0.67,11.59,0,109.4,13.63,-1.20,273.1
"2010-11-26 01:20:00",369101,10.71,310.6,3.994,0.585,4.576,99.50125,-1.971,-0.703,11.71,0,109.4,13.63,-1.23,272.6
"2010-11-26 01:20:30",369102,10.42,313,4.593,0.704,4.816,99.50267,-1.967,-0.697,11.78,0,109.4,13.63,-1.22,275.0
"2010-11-26 01:21:00",369103,10.72,315.2,3.97,0.699,4.838,99.51881,-1.926,-0.704,11.81,0,109.4,13.63,-1.18,277.2
"2010-11-26 01:21:30",369104,10.11,316.8,3.341,0.649,4.879,99.53638,-1.881,-0.702,11.83,0,109.4,13.63,-1.14,278.8
"2010-11-26 01:22:00",369105,9.55,313.5,4.432,0.658,4.964,99.53921,-1.874,-0.678,11.82,0,109.4,13.63,-1.13,275.5
"2010-11-26 01:22:30",369106,9.3,317.6,4.845,0.564,5.244,99.56386,-1.811,-0.669,11.8,0,109.4,13.63,-1.07,279.6
"2010-11-26 01:23:00",369107,9.23,319,3.2,0.514,5.011,99.5817,-1.766,-0.629,11.73,0,109.4,13.63,-1.02,281.0
"2010-11-26 01:23:30",369108,9.59,315.6,4.443,0.675,4.648,99.60778,-1.699,-0.594,11.73,0,109.4,13.63,-0.95,277.6
"2010-11-26 01:24:00",369109,9.54,317.2,4.463,0.616,4.797,99.60918,-1.696,-0.592,11.73,0,109.4,13.63,-0.95,279.2
"2010-11-26 01:24:30",369110,10.09,317.1,3.981,0.711,4.758,99.61032,-1.693,-0.568,11.72,0,109.4,13.63,-0.95,279.1
"2010-11-26 01:25:00",369111,9.42,319.2,3.342,0.534,4.798,99.61826,-1.673,-0.559,11.71,0,109.3,13.64,-0.93,281.2
"2010-11-26 01:25:30",369112,9.22,319.1,3.36,0.701,4.903,99.63469,-1.631,-0.524,11.59,0,109.4,13.64,-0.88,281.1
"2010-11-26 01:26:00",369113,9.37,318.3,3.668,0.548,4.838,99.64546,-1.603,-0.502,11.54,0,109.4,13.64,-0.86,280.3
"2010-11-26 01:26:30",369114,9.42,318.7,4.218,0.555,4.908,99.64772,-1.598,-0.49,11.59,0,109.4,13.64,-0.85,280.7
"2010-11-26 01:27:00",369115,9.61,319.5,3.58,0.359,4.775,99.65112,-1.589,-0.481,11.61,0,109.4,13.64,-0.84,281.5
"2010-11-26 01:27:30",369116,9.46,318.4,3.836,0.571,4.747,99.65311,-1.584,-0.461,11.63,0,109.4,13.63,-0.84,280.4
"2010-11-26 01:28:00",369117,9.69,317.9,3.791,0.679,4.827,99.65112,-1.589,-0.46,11.65,0,109.4,13.63,-0.84,279.9
"2010-11-26 01:28:30",369118,9.83,318.6,3.345,0.661,4.63,99.648,-1.597,-0.457,11.69,0,109.4,13.64,-0.85,280.6
"2010-11-26 01:29:00",369119,10.14,317.7,2.857,0.648,4.623,99.64687,-1.6,-0.473,11.72,0,109.3,13.64,-0.85,279.7
"2010-11-26 01:29:30",369120,10.43,316.8,4.04,0.559,4.608,99.64546,-1.603,-0.458,11.73,0,109.4,13.63,-0.86,278.8
"2010-11-26 01:30:00",369121,10.32,315.3,3.844,0.573,4.74,99.6449,-1.605,-0.458,11.74,0,109.4,13.64,-0.86,277.3
"2010-11-26 01:30:30",369122,9.99,318.3,4.405,0.425,5.247,99.64433,-1.606,-0.458,11.65,0,109.4,13.64,-0.86,280.3
"2010-11-26 01:31:00",369123,10.07,318.3,2.854,0.629,4.908,99.64659,-1.6,-0.46,11.52,0,109.4,13.64,-0.85,280.3
"2010-11-26 01:31:30",369124,10.15,315.1,3.533,0.654,4.755,99.64773,-1.598,-0.449,11.56,0,109.4,13.64,-0.85,277.1
"2010-11-26 01:32:00",369125,10.27,314.1,3.296,0.649,4.554,99.64602,-1.602,-0.465,11.64,0,109.4,13.64,-0.86,276.1
"2010-11-26 01:32:30",369126,10.45,313.7,3.433,0.633,4.763,99.64489,-1.605,-0.46,11.73,0,109.4,13.64,-0.86,275.7
"2010-11-26 01:33:00",369127,10.42,313.4,3.144,0.522,4.585,99.64291,-1.61,-0.472,11.76,0,109.3,13.63,-0.86,275.4
"2010-11-26 01:33:30",369128,10.43,313.2,3.238,0.67,4.593,99.62845,-1.647,-0.47,11.81,0,109.4,13.63,-0.90,275.2
"2010-11-26 01:34:00",369129,10.81,314.1,3.267,0.683,4.609,99.62023,-1.668,-0.486,11.85,0,109.4,13.63,-0.92,276.1
"2010-11-26 01:34:30",369130,10.77,314.3,3.538,0.723,4.827,99.61202,-1.689,-0.493,11.86,0,109.4,13.63,-0.94,276.3
"2010-11-26 01:35:00",369131,10.89,314.3,3.566,0.379,4.93,99.61257,-1.687,-0.518,11.85,0,109.4,13.63,-0.94,276.3
"2010-11-26 01:35:30",369132,10.56,314,3.9,0.634,4.984,99.61032,-1.693,-0.494,11.85,0,109.4,13.63,-0.95,276.0
"2010-11-26 01:36:00",369133,10.32,313.7,3.276,0.674,4.75,99.60918,-1.696,-0.53,11.84,0,109.4,13.63,-0.95,275.7
"2010-11-26 01:36:30",369134,10.09,313.6,3.684,0.682,4.965,99.6123,-1.688,-0.521,11.78,0,109.4,13.63,-0.94,275.6
"2010-11-26 01:37:00",369135,9.9,315.6,3.31,0.541,4.823,99.61315,-1.686,-0.512,11.74,0,109.4,13.63,-0.94,277.6
"2010-11-26 01:37:30",369136,10.01,314.2,4.014,0.567,4.832,99.6191,-1.67,-0.517,11.72,0,109.4,13.63,-0.92,276.2
"2010-11-26 01:38:00",369137,9.9,315.9,4.202,0.566,4.775,99.62193,-1.663,-0.495,11.65,0,109.4,13.64,-0.92,277.9
"2010-11-26 01:38:30",369138,9.93,314.7,3.766,0.552,4.901,99.62449,-1.657,-0.488,11.65,0,109.4,13.64,-0.91,276.7
"2010-11-26 01:39:00",369139,10.07,315,3.795,0.382,4.755,99.62646,-1.652,-0.494,11.59,0,109.3,13.64,-0.91,277.0
"2010-11-26 01:39:30",369140,9.87,314.1,3.782,0.535,4.773,99.62562,-1.654,-0.473,11.6,0,109.4,13.64,-0.91,276.1
"2010-11-26 01:40:00",369141,9.86,316.9,4.033,0.566,4.922,99.63468,-1.631,-0.472,11.39,0,109.4,13.64,-0.88,278.9
"2010-11-26 01:40:30",369142,9.76,314.4,3.678,0.561,4.747,99.64404,-1.607,-0.469,11.29,0,109.4,13.64,-0.86,276.4
"2010-11-26 01:41:00",369143,9.68,316.9,3.134,0.559,4.784,99.64687,-1.6,-0.463,11.26,0,109.4,13.64,-0.85,278.9
"2010-11-26 01:41:30",369144,9.75,317.2,3.883,0.679,4.734,99.64234,-1.611,-0.464,11.21,0,109.4,13.64,-0.86,279.2
"2010-11-26 01:42:00",369145,10.01,317.8,3.804,0.654,4.417,99.63497,-1.63,-0.486,11.19,0,109.4,13.64,-0.88,279.8
"2010-11-26 01:42:30",369146,9.85,317.7,3.498,0.532,4.467,99.61712,-1.676,-0.5,11.35,0,109.4,13.64,-0.93,279.7
"2010-11-26 01:43:00",369147,10.19,317.7,3.665,0.402,4.383,99.59246,-1.738,-0.522,11.56,0,109.4,13.64,-0.99,279.7
"2010-11-26 01:43:30",369148,10.18,315.7,3.855,0.648,4.787,99.57406,-1.785,-0.544,11.55,0,109.4,13.64,-1.04,277.7
"2010-11-26 01:44:00",369149,10.06,318.2,3.446,0.624,4.546,99.57603,-1.78,-0.594,11.42,0,109.4,13.64,-1.03,280.2
"2010-11-26 01:44:30",369150,10.04,318.2,2.746,0.778,4.737,99.57659,-1.779,-0.585,11.31,0,109.4,13.64,-1.03,280.2
"2010-11-26 01:45:00",369151,9.98,318.7,3.654,0.547,5.197,99.57858,-1.774,-0.587,11.22,0,109.3,13.64,-1.03,280.7
"2010-11-26 01:45:30",369152,10.05,319.9,3.276,0.511,5.041,99.59245,-1.738,-0.558,11.19,0,109.4,13.64,-0.99,281.9
"2010-11-26 01:46:00",369153,9.84,320.7,3.794,0.632,5.067,99.61144,-1.69,-0.569,11.15,0,109.4,13.64,-0.94,282.7